Naples, Italy

6:49 PM CET on March 23, 2017 (GMT +0100)
Naples

Weather History for LIRN - March, 2013

Change the Weather History Date:

Saturday, March 30, 2013

  Actual Average Record
Temperature  
Mean Temperature 56 °F -  
Max Temperature 62 °F 65 °F 68 °F (2008)
Min Temperature 51 °F 47 °F 41 °F (1997)
Degree Days  
Heating Degree Days 8    
Growing Degree Days 6 (Base 50)    
Moisture  
Dew Point 54 °F    
Average Humidity 88    
Maximum Humidity 100    
Minimum Humidity 72    
Precipitation  
Precipitation 0.00 in 0.10 in - ()
Sea Level Pressure  
Sea Level Pressure 29.67 in    
Wind  
Wind Speed 7 mph ()    
Max Wind Speed 16 mph    
Max Gust Speed 28 mph    
Visibility 4.4 miles    
Events Rain    
Averages and records for this station are not official NWS values.
T = Trace of Precipitation, MM = Missing Value Source: Averaged Metar Reports

Daily Weather History Graph

Daily Weather History Graph

Search for Another Location

Airport or City:

Trip Planner

Search our weather history database for the weather conditions in past years. The results will help you decide how hot, cold, wet, or windy it might be!

Date:

Astronomy

Mar. 30, 2013 Rise Set
Actual Time 5:49 AM CET 6:25 PM CET
Civil Twilight 5:22 AM CET 6:53 PM CET
Nautical Twilight 4:49 AM CET 7:25 PM CET
Astronomical Twilight 4:15 AM CET 7:59 PM CET
Moon 10:14 PM CET (3/30) 7:29 AM CET (3/30)
Length of Visible Light 13h 31m
Length of Day
12h 35m
Waning Gibbous, 88% of the Moon is Illuminated
Mar 30
Waning Gibbous
Apr 3
Last Quarter
Apr 10
New
Apr 18
First Quarter
Apr 25
Full

Hourly Weather History & Observations

Time (CET) Temp. Dew Point Humidity Pressure Visibility Wind Dir Wind Speed Gust Speed Precip Events Conditions
12:20 AM 57.2 °F 55.4 °F 94% 29.80 in 5.0 mi Calm Calm - N/A   Partly Cloudy
12:50 AM 57.2 °F 53.6 °F 88% 29.80 in 5.0 mi WSW 8.1 mph - N/A   Partly Cloudy
1:20 AM 57.2 °F 53.6 °F 88% 29.80 in 5.0 mi South 3.5 mph - N/A   Partly Cloudy
1:50 AM 55.4 °F 53.6 °F 94% 29.80 in 5.0 mi East 3.5 mph - N/A   Partly Cloudy
2:20 AM 55.4 °F 51.8 °F 88% 29.80 in 3.1 mi NE 3.5 mph - N/A   Partly Cloudy
2:50 AM - - N/A% - 3.1 mi NE 3.5 mph - N/A   Mist
3:20 AM 53.6 °F 51.8 °F 94% 29.77 in 3.1 mi NNE 4.6 mph - N/A   Partly Cloudy
3:50 AM 53.6 °F 51.8 °F 94% 29.77 in 3.1 mi North 4.6 mph - N/A   Partly Cloudy
4:20 AM 53.6 °F 51.8 °F 94% 29.77 in 3.1 mi North 3.5 mph - N/A   Partly Cloudy
4:50 AM 53.6 °F 51.8 °F 94% 29.77 in 1.9 mi NW 3.5 mph - N/A   Mist
5:20 AM 53.6 °F 51.8 °F 94% 29.77 in 2.2 mi NNW 3.5 mph - N/A   Mist
5:50 AM 51.8 °F 51.8 °F 100% 29.77 in 1.6 mi West 3.5 mph - N/A   Mist
6:20 AM 53.6 °F 51.8 °F 94% 29.74 in 3.1 mi Variable 2.3 mph - N/A   Partly Cloudy
6:50 AM 53.6 °F 51.8 °F 94% 29.74 in 4.3 mi Variable 2.3 mph - N/A   Partly Cloudy
7:20 AM 55.4 °F 53.6 °F 94% 29.74 in 3.1 mi NNE 3.5 mph - N/A   Mostly Cloudy
7:50 AM 55.4 °F 53.6 °F 94% 29.74 in 3.1 mi NNW 3.5 mph - N/A   Mostly Cloudy
8:20 AM 57.2 °F 53.6 °F 88% 29.74 in 3.7 mi Variable 2.3 mph - N/A   Mostly Cloudy
8:50 AM 59.0 °F 53.6 °F 82% 29.74 in 3.7 mi SSW 4.6 mph - N/A   Mostly Cloudy
9:20 AM 60.8 °F 53.6 °F 77% 29.74 in 3.7 mi South 9.2 mph - N/A   Mostly Cloudy
9:50 AM 60.8 °F 55.4 °F 82% 29.71 in 3.7 mi South 10.4 mph - N/A   Mostly Cloudy
10:20 AM 60.8 °F 53.6 °F 77% 29.71 in 6.2 mi SSW 12.7 mph - N/A   Mostly Cloudy
10:50 AM 60.8 °F 55.4 °F 82% 29.71 in 6.2 mi SSW 13.8 mph - N/A   Mostly Cloudy
11:20 AM 62.6 °F 53.6 °F 72% 29.68 in 6.2 mi South 13.8 mph 25.3 mph N/A   Mostly Cloudy
11:50 AM 60.8 °F 53.6 °F 77% 29.68 in 6.2 mi South 13.8 mph - N/A   Mostly Cloudy
12:20 PM 60.8 °F 53.6 °F 77% 29.68 in 6.2 mi South 15.0 mph - N/A   Mostly Cloudy
12:50 PM 60.8 °F 53.6 °F 77% 29.65 in 6.2 mi South 12.7 mph - N/A   Mostly Cloudy
1:20 PM 59.0 °F 55.4 °F 88% 29.65 in 6.2 mi South 15.0 mph 26.5 mph N/A   Mostly Cloudy
1:50 PM 59.0 °F 55.4 °F 88% 29.65 in 6.2 mi SSW 13.8 mph 26.5 mph N/A   Mostly Cloudy
2:20 PM 59.0 °F 53.6 °F 82% 29.65 in 6.2 mi South 11.5 mph - N/A   Mostly Cloudy
2:50 PM 59.0 °F 53.6 °F 82% 29.62 in 6.2 mi South 13.8 mph - N/A   Mostly Cloudy
3:20 PM 59.0 °F 55.4 °F 88% 29.62 in 6.2 mi South 12.7 mph - N/A   Mostly Cloudy
3:50 PM 59.0 °F 53.6 °F 82% 29.62 in 6.2 mi South 12.7 mph - N/A   Mostly Cloudy
4:20 PM 59.0 °F 55.4 °F 88% 29.59 in 3.1 mi South 12.7 mph - N/A Rain Light Rain
4:50 PM 59.0 °F 55.4 °F 88% 29.59 in 3.1 mi South 13.8 mph - N/A Rain Light Rain
5:20 PM 59.0 °F 55.4 °F 88% 29.56 in 3.1 mi South 13.8 mph - N/A Rain Light Rain
5:50 PM 57.2 °F 55.4 °F 94% 29.56 in 3.7 mi South 15.0 mph 26.5 mph N/A Rain Light Rain
6:20 PM 59.0 °F 55.4 °F 88% 29.56 in 3.7 mi South 10.4 mph - N/A   Mostly Cloudy
6:50 PM 59.0 °F 55.4 °F 88% 29.56 in 4.3 mi South 11.5 mph - N/A   Mostly Cloudy
7:20 PM 59.0 °F 55.4 °F 88% 29.56 in 4.3 mi South 13.8 mph - N/A   Mostly Cloudy
7:50 PM 59.0 °F 55.4 °F 88% 29.56 in 4.3 mi South 16.1 mph 27.6 mph N/A   Mostly Cloudy
8:20 PM 59.0 °F 55.4 °F 88% 29.56 in 5.0 mi South 13.8 mph - N/A   Mostly Cloudy
8:50 PM 59.0 °F 55.4 °F 88% 29.56 in 3.7 mi South 13.8 mph - N/A Rain Rain
9:20 PM 57.2 °F 55.4 °F 94% 29.56 in 3.7 mi SSW 13.8 mph - N/A Rain Rain
9:50 PM 57.2 °F 55.4 °F 94% 29.53 in 5.0 mi South 12.7 mph - N/A Rain Light Rain
10:20 PM 59.0 °F 55.4 °F 88% 29.53 in 5.0 mi SW 11.5 mph - N/A   Mostly Cloudy
10:50 PM 59.0 °F 55.4 °F 88% 29.53 in 5.0 mi SW 9.2 mph - N/A   Mostly Cloudy
11:20 PM 59.0 °F 53.6 °F 82% 29.53 in 5.0 mi WSW 11.5 mph - N/A Rain Light Rain
11:50 PM 57.2 °F 51.8 °F 82% 29.56 in 5.0 mi West 16.1 mph - N/A   Mostly Cloudy